This is the latest recevied weather packets stored in our database for station/object KG7MRB. If no packets are shown the sender has not sent any weather packets the latest 10 day(s).
| Time | Temp. | Humidity | Pressure | Rain* | Wind** | Luminosity | Snow |
|---|---|---|---|---|---|---|---|
| 1777100482 | 3.89° C | 85% | 1034 hPa | 0 mm | - | 0 W/m² | - |
| 1777100180 | 3.89° C | 85% | 1033.9 hPa | 0 mm | - | 0 W/m² | - |
| 1777099877 | 4.44° C | 84% | 1033.9 hPa | 0 mm | - | 0 W/m² | - |
| 1777099576 | 4.44° C | 84% | 1033.8 hPa | 0 mm | - | 0 W/m² | - |
| 1777099274 | 4.44° C | 83% | 1034.1 hPa | 0 mm | - | 0 W/m² | - |
| 1777098972 | 5° C | 82% | 1033.7 hPa | 0 mm | - | 0 W/m² | - |
| 1777098667 | 5° C | 81% | 1033.9 hPa | 0 mm | - | 0 W/m² | - |
| 1777098363 | 5° C | 82% | 1034.1 hPa | 0 mm | - | 0 W/m² | - |
| 1777098061 | 5° C | 81% | 1034 hPa | 0 mm | - | 0 W/m² | - |
| 1777097757 | 5° C | 82% | 1034.1 hPa | 0 mm | - | 0 W/m² | - |
| 1777097455 | 5° C | 81% | 1034 hPa | 0 mm | - | 0 W/m² | - |
| 1777097152 | 5° C | 81% | 1034.1 hPa | 0 mm | - | 0 W/m² | - |
| 1777096848 | 6.11° C | 80% | 1033.9 hPa | 0 mm | - | 0 W/m² | - |
| 1777096548 | 5.56° C | 82% | 1034.2 hPa | 0 mm | - | 0 W/m² | - |
| 1777096244 | 5.56° C | 81% | 1034 hPa | 0 mm | - | 0 W/m² | - |
| 1777095943 | 5.56° C | 81% | 1034.2 hPa | 0 mm | - | 0 W/m² | - |
| 1777095638 | 6.11° C | 81% | 1034.1 hPa | 0 mm | - | 0 W/m² | - |
| 1777095336 | 6.11° C | 80% | 1034 hPa | 0 mm | - | 0 W/m² | - |
| 1777095031 | 5.56° C | 81% | 1034.1 hPa | 0 mm | - | 0 W/m² | - |
| 1777094727 | 6.11° C | 81% | 1034.1 hPa | 0 mm | - | 0 W/m² | - |
| 1777094421 | 6.11° C | 80% | 1034.3 hPa | 0 mm | - | 0 W/m² | - |
| 1777094121 | 6.11° C | 80% | 1034.2 hPa | 0 mm | - | 0 W/m² | - |
| 1777093816 | 6.11° C | 80% | 1034.3 hPa | 0 mm | - | 0 W/m² | - |
| 1777093512 | 6.11° C | 80% | 1034 hPa | 0 mm | - | 0 W/m² | - |
| 1777093209 | 6.11° C | 80% | 1034.2 hPa | 0 mm | - | 0 W/m² | - |
* Rain latest hour (hover to see other rain measurements)
** Current wind speed in m/s (hover to see current wind gust speed)